Find Starlink 37371

NORAD ID: 68977 Int'l Des: 2026-099 Owner: SPXS Country: US Constellation: starlink operational
LEOCIRCULAR

当前视图

正在加载3D地球...

About Starlink 37371

Starlink 37371 (NORAD 68977) is a starlink constellation satellite (v2 mini) launched May 1, 2026 by SPXS of US. It operates in LEO, CIRCULAR orbit with a mass of 575.00 kg.

关于 Starlink 37371

正在加载描述...

即将过境

Passes for default location (London). Set your location on the main map for personalized predictions.

高度历史

Loading altitude history...

两行轨道根数

1 68977U 26099AC 26171.23414341 .00020198 00000-0 60712-3 0 9991
2 68977 53.1593 146.7844 0001651 81.7551 278.3638 15.34410869 7745
Epoch: Jun 20, 2026 • Age: 6 hours

当前状态

高度 462.3 km
速度 7.64 km/s
星下点 13.61°N, 68.04°E
发射日期 May 1, 2026
运行时间 0.1 years
类型 internet

技术详情

分类 Payload
质量 575.00 kg
干质量 530.00 kg
总质量 575.00 kg
长度 0.30 m
直径 4.10 m
跨度 29.00 m
形状 Box + pan
制造商 SPXS
平台类型 Starlink V2MO
阶段状态 In Orbit
所有者/国家 SPXS/US

Most Searched